This is the latest recevied weather packets stored in our database for station/object SQ9SMC-13. If no packets are shown the sender has not sent any weather packets the latest 1 day(s).
| Time | Temp. | Humidity | Pressure | Rain* | Wind** | Luminosity | Snow |
|---|---|---|---|---|---|---|---|
| 1778001303 | 23.89° C | 25% | 1008.4 hPa | 0 mm | 0.45 m/s, 340° | 21 W/m² | - |
| 1778001003 | 23.89° C | 24% | 1008.4 hPa | 0 mm | 0.45 m/s, 12° | 21 W/m² | - |
| 1778000712 | 24.44° C | 23% | 1008.3 hPa | 0 mm | 2.24 m/s, 30° | 21 W/m² | - |
| 1778000403 | 24.44° C | 23% | 1008.2 hPa | 0 mm | 1.34 m/s, 13° | 23 W/m² | - |
| 1778000104 | 24.44° C | 23% | 1008.4 hPa | 0 mm | 0.45 m/s, 77° | 27 W/m² | - |
| 1777999803 | 25° C | 23% | 1008.3 hPa | 0 mm | 0.89 m/s, 40° | 31 W/m² | - |
| 1777999502 | 25° C | 22% | 1008.2 hPa | 0 mm | 1.34 m/s, 24° | 33 W/m² | - |
| 1777999203 | 25.56° C | 22% | 1008.2 hPa | 0 mm | 1.34 m/s, 34° | 37 W/m² | - |
| 1777998903 | 25.56° C | 23% | 1008.2 hPa | 0 mm | 0.89 m/s, 112° | 45 W/m² | - |
| 1777998605 | 25.56° C | 22% | 1008 hPa | 0 mm | 2.24 m/s, 17° | 63 W/m² | - |
| 1777998302 | 26.11° C | 22% | 1008.3 hPa | 0 mm | 1.34 m/s, 5° | 60 W/m² | - |
| 1777998003 | 26.11° C | 21% | 1008.3 hPa | 0 mm | 1.79 m/s, 95° | 79 W/m² | - |
| 1777997705 | 26.11° C | 21% | 1008.4 hPa | 0 mm | 2.68 m/s, 95° | 74 W/m² | - |
| 1777997403 | 26.67° C | 20% | 1008.3 hPa | 0 mm | 1.34 m/s, 99° | 83 W/m² | - |
| 1777997104 | 26.67° C | 19% | 1008.2 hPa | 0 mm | 1.34 m/s, 267° | 133 W/m² | - |
| 1777996802 | 26.67° C | 19% | 1008.3 hPa | 0 mm | 0.89 m/s, 359° | 147 W/m² | - |
| 1777996502 | 27.22° C | 20% | 1008.1 hPa | 0 mm | 1.34 m/s, 24° | 156 W/m² | - |
| 1777996203 | 26.67° C | 21% | 1008.2 hPa | 0 mm | 2.24 m/s, 7° | 166 W/m² | - |
| 1777995903 | 27.22° C | 20% | 1008.1 hPa | 0 mm | 1.79 m/s, 52° | 180 W/m² | - |
| 1777995602 | 27.22° C | 20% | 1008.2 hPa | 0 mm | 2.68 m/s, 338° | 199 W/m² | - |
| 1777995304 | 27.22° C | 20% | 1008.2 hPa | 0 mm | 1.79 m/s, 79° | 212 W/m² | - |
| 1777995005 | 27.22° C | 19% | 1008.1 hPa | 0 mm | 1.34 m/s, 37° | 193 W/m² | - |
| 1777994702 | 26.67° C | 20% | 1007.9 hPa | 0 mm | 1.34 m/s, 354° | 127 W/m² | - |
| 1777994403 | 27.78° C | 19% | 1008.2 hPa | 0 mm | 2.24 m/s, 359° | 187 W/m² | - |
| 1777994104 | 27.78° C | 19% | 1008.2 hPa | 0 mm | 1.34 m/s, 22° | 286 W/m² | - |
* Rain latest hour (hover to see other rain measurements)
** Current wind speed in m/s (hover to see current wind gust speed)